This demonstration page uses our WeatherBlox Daily Observations layout. Learn more.

Left ArrowRight Arrow

Hourly Observations for April 2, 2015

Temp ( °F °C ) Dew Point ( °F °C ) Humidity (%) Winds ( mph kmh ) Pressure ( in mb ) Visibility ( mi km ) Precip ( " mm )
6:30 am 06:30 Cloudy with Nearby Thunderstorms 54 12 25 -4 33 33 S 6 9 29.91 1013 10 16 N/A
6:53 am 06:53 Cloudy with Nearby Thunderstorms 54 12 25 -4 33 33 S 6 9 29.91 1013 10 16 N/A
7:47 am 07:47 Cloudy 54 12 27 -3 35 35 S 9 15 29.91 1013 10 16 N/A
8:58 am 08:58 Cloudy 55 13 32 0 41 41 S 12 19 29.88 1012 10 16 N/A
9:51 am 09:51 Mostly Cloudy 55 13 36 2 47 47 S 13 20 29.88 1012 10 16 N/A
10:45 am 10:45 Mostly Cloudy 63 17 39 4 42 42 SSW 15 24 29.85 1011 10 16 N/A
11:15 am 11:15 Cloudy 63 17 45 7 52 52 SSW 17 28 29.83 1010 10 16 N/A
11:41 am 11:41 Cloudy with Light Rain 63 17 48 9 59 59 S 18 30 29.83 1010 3 5 N/A
11:56 am 11:56 Cloudy with Light Rain 61 16 54 12 77 77 SSW 23 37 29.85 1011 3 5 N/A
12:04 pm 12:04 Cloudy with Light Rain 61 16 55 13 83 83 SSW 16 26 29.85 1011 3 4 N/A
12:17 pm 12:17 Cloudy 63 17 55 13 77 77 SSW 14 22 29.83 1010 7 11 N/A
12:45 pm 12:45 Cloudy 64 18 55 13 73 73 SSW 20 31 29.80 1009 7 11 N/A
1:15 pm 13:15 Cloudy with Light Rain 64 18 57 14 78 78 SSW 17 28 29.80 1009 3 5 N/A
1:25 pm 13:25 Cloudy with Light Rain 64 18 59 15 83 83 SSW 22 35 29.80 1009 5 8 N/A
1:52 pm 13:52 Cloudy with Light Rain 64 18 59 15 83 83 SSW 22 35 29.80 1009 5 8 N/A
2:50 pm 14:50 Cloudy with Light Rain 63 17 59 15 88 88 S 12 19 29.80 1009 7 11 N/A
3:50 pm 15:50 Mostly Cloudy 64 18 61 16 88 88 S 14 22 29.74 1007 10 16 N/A
5:50 pm 17:50 Cloudy 68 20 59 15 73 73 SW 12 19 29.77 1008 10 16 N/A
6:55 pm 18:55 Cloudy 66 19 57 14 73 73 SSW 9 15 29.77 1008 10 16 N/A
7:50 pm 19:50 Mostly Cloudy 63 17 55 13 77 77 SSE 5 7 29.80 1009 10 16 N/A
9:55 pm 21:55 Cloudy with Light Rain 59 15 57 14 94 94 W 3 6 29.97 1015 7 11 N/A

Powered by AerisWeather